Hourly Data Report for July 15, 2012

All times are specified in Local Standard Time (LST). Add 1 hour to adjust for Daylight Saving Time where and when it is observed.

TIMMINS A
ONTARIO

48°34'14.000" N
81°22'36.000" W
294.70 m
6078286
71739
YTS

Download Data

Hourly Data (July 2012)
Hourly Data Report for July 15, 2012
Temp Definition
°C
Dew Point Temp Definition
°C
Rel Hum Definition
%
Wind Dir Definition
10's deg

Wind Spd Definition
km/h
Visibility Definition
km
Stn Press Definition
kPa
Hmdx Definition


Wind Chill Definition


Weather Definition


TIME
00:00 Legend Double Dagger 18.9 17.9 94 20 10 10.0 98.04     LegendNANA
01:00 Legend Double Dagger 18.7 17.7 94 28 4 10.0 98.02     Rain Showers
02:00 Legend Double Dagger 18.2 17.6 96 24 4 10.0 98.00     LegendNANA
03:00 Legend Double Dagger 17.7 17.4 98   0 10.0 97.98     LegendNANA
04:00 Legend Double Dagger 18.0 17.7 98   0 10.0 98.01     Cloudy
05:00
06:00 Legend Double Dagger 17.7 17.4 98 19 5 9.7 98.04     Drizzle,Fog
07:00 Legend Double Dagger 18.3 18.0 98   0 9.7 98.04     Fog
08:00 Legend Double Dagger 19.2 18.4 95   0 9.7 98.06     Fog
09:00 Legend Double Dagger 19.7 18.6 93 34 6 9.7 98.10     Fog
10:00 Legend Double Dagger 21.0 18.2 84 3 7 10.0 98.07 27   Cloudy
11:00 Legend Double Dagger 22.8 18.0 74 1 10 10.0 98.07 29   LegendNANA
12:00 Legend Double Dagger 23.4 17.9 71 1 13 10.0 98.05 29   LegendNANA
13:00 Legend Double Dagger 24.5 18.1 67 33 9 10.0 97.98 31   Mainly Clear
14:00 Legend Double Dagger 26.0 17.0 57 31 11 10.0 97.95 31   LegendNANA
15:00 Legend Double Dagger 26.9 17.0 54 34 14 10.0 97.90 32   LegendNANA
16:00 Legend Double Dagger 27.5 16.7 51 31 10 10.0 97.84 33   Mainly Clear
17:00 Legend Double Dagger 27.9 16.4 49 32 15 10.0 97.85 33   LegendNANA
18:00 Legend Double Dagger 26.1 16.8 56 33 17 10.0 97.85 31   LegendNANA
19:00 Legend Double Dagger 25.3 16.1 56 35 19 10.0 97.88 30   Mostly Cloudy
20:00 Legend Double Dagger 22.9 16.8 68 34 15 10.0 97.96 28   LegendNANA
21:00 Legend Double Dagger 20.7 16.6 77 34 6 10.0 98.02 26   LegendNANA
22:00 Legend Double Dagger 17.7 15.9 89 30 6 10.0 98.04     Mainly Clear
23:00 Legend Double Dagger 16.1 15.2 94 31 7 10.0 98.05     LegendNANA

Notes on Data Quality.

Legend

  • E = Estimated
  • M = Missing
  • NA = Not Available
  • ‡ = Partner data that is not subject to review by the National Climate Archives
Date modified: